Stations météo

réclame
Mon MeteoGroup
Hoorn-A, Pays-Bas (6212): Température de l'air & dewpoint: 19.09.2018 13:00:00 - 25.09.2018 13:00:00 (CEST)Hoorn-A, Pays-Bas (6212): Vitesse du vent & gusts: 19.09.2018 13:00:00 - 25.09.2018 13:00:00 (CEST)Hoorn-A, Pays-Bas (6212): Direction du vent: 19.09.2018 13:00:00 - 25.09.2018 13:00:00 (CEST)Hoorn-A, Pays-Bas (6212): reduced air pressure: 19.09.2018 13:00:00 - 25.09.2018 13:00:00 (CEST)Hoorn-A, Pays-Bas (6212): visibility: 19.09.2018 13:00:00 - 25.09.2018 13:00:00 (CEST)
Date & Time tt [°C] td [°C] ff [km/h] ff [knt] fx [km/h] fx [knt] dd ppp [hPa] vv [km]
25.09.2018 13:00:00 13,8 5,7 8 4 14 8 S 1038,9 10
25.09.2018 12:00:00 13,7 5,5 2 1 7 4 - 1039,3 10
25.09.2018 11:00:00 13,3 6,7 13 7 14 8 WNW 1038,9 10
25.09.2018 10:00:00 13,4 6,0 9 5 18 10 WNW 1038,4 10
25.09.2018 09:00:00 13,6 5,4 11 6 14 8 WNW 1038,0 10
25.09.2018 08:00:00 13,3 4,8 11 6 18 10 NW 1037,6 10
25.09.2018 07:00:00 13,1 4,9 15 8 22 12 NW 1037,3 10
25.09.2018 06:00:00 13,2 4,9 16 9 22 12 NW 1037,5 10
25.09.2018 05:00:00 13,1 5,1 21 11 25 14 NW 1037,4 10
25.09.2018 04:00:00 13,2 5,1 18 10 25 14 NW 1037,4 10
25.09.2018 03:00:00 13,1 5,6 18 10 22 12 NW 1037,2 10
25.09.2018 02:00:00 13,0 4,6 21 11 29 16 NW 1037,2 10
25.09.2018 01:00:00 13,1 5,6 28 15 29 16 NW 1037,2 10
25.09.2018 00:00:00 13,2 5,4 29 16 36 19 NNW 1037,1 10
24.09.2018 23:00:00 13,2 6,4 31 17 36 19 NNW 1036,7 10
24.09.2018 22:00:00 13,2 6,0 35 19 40 21 NW 1036,3 10
24.09.2018 21:00:00 13,0 5,9 37 20 43 23 NW 1035,9 10
24.09.2018 20:00:00 12,8 6,9 39 21 43 23 NW 1035,7 10
24.09.2018 19:00:00 13,0 4,4 42 23 47 25 NW 1035,3 10
24.09.2018 18:00:00 13,1 4,8 42 23 43 23 NW 1035,2 10
24.09.2018 17:00:00 13,2 5,6 42 23 50 27 NW 1034,8 10
24.09.2018 16:00:00 13,1 6,1 44 24 50 27 NW 1034,9 10
24.09.2018 15:00:00 13,1 5,2 46 25 47 25 NW 1034,8 10
24.09.2018 14:00:00 13,0 5,0 42 23 50 27 NW 1034,4 10
24.09.2018 13:00:00 13,1 5,2 46 25 47 25 NW 1034,2 10
24.09.2018 12:00:00 12,9 3,2 44 24 54 29 NW 1033,6 10
24.09.2018 11:00:00 13,2 5,4 50 27 50 27 NW 1033,0 10
24.09.2018 10:00:00 13,0 5,1 52 28 61 33 NW 1032,3 10
24.09.2018 09:00:00 13,2 4,7 54 29 65 35 NW 1031,0 10
24.09.2018 08:00:00 13,0 5,1 54 29 54 29 NW 1030,3 10
24.09.2018 07:00:00 12,4 7,6 52 28 58 31 NW 1029,8 10
24.09.2018 06:00:00 13,3 5,4 50 27 54 29 NW 1029,5 10
24.09.2018 05:00:00 13,1 6,4 54 29 54 29 NW 1029,0 10
24.09.2018 04:00:00 12,9 4,7 55 30 61 33 NW 1028,1 10
24.09.2018 03:00:00 12,2 6,7 48 26 58 31 NNW 1027,7 10
24.09.2018 02:00:00 12,8 5,7 54 29 65 35 NNW 1026,5 10
24.09.2018 01:00:00 12,1 6,1 52 28 72 39 NNW 1024,9 10
24.09.2018 00:00:00 13,1 5,2 57 31 58 31 NNW 1024,7 10
23.09.2018 23:00:00 13,6 5,8 59 32 61 33 NNW 1023,2 10
23.09.2018 22:00:00 12,9 5,5 54 29 61 33 NNW 1021,8 10
23.09.2018 21:00:00 13,4 5,7 54 29 54 29 NNW 1020,3 10
23.09.2018 20:00:00 13,2 6,5 37 20 61 33 NNW 1019,0 10
23.09.2018 19:00:00 13,5 4,6 48 26 50 27 N 1017,2 10
23.09.2018 18:00:00 12,5 5,8 52 28 61 33 N 1015,9 10
23.09.2018 17:00:00 13,3 5,4 41 22 50 27 NNW 1014,5 10
23.09.2018 16:00:00 12,9 8,2 29 16 47 25 NW 1013,7 10
23.09.2018 15:00:00 11,7 6,4 18 10 32 18 NW 1013,5 10
23.09.2018 14:00:00 11,6 5,5 24 13 29 16 NNW 1013,5 10
23.09.2018 13:00:00 11,2 8,2 22 12 29 16 NNE 1013,3 9
23.09.2018 12:00:00 11,7 8,4 26 14 29 16 NNE 1012,6 10
23.09.2018 11:00:00 11,4 8,2 22 12 25 14 N 1012,9 10
23.09.2018 10:00:00 11,7 9,2 11 6 18 10 NNE 1012,7 10
23.09.2018 09:00:00 11,2 9,7 13 7 14 8 N 1013,0 7
23.09.2018 08:00:00 12,7 8,2 4 2 11 6 - 1013,3 10
23.09.2018 07:00:00 12,1 9,2 16 9 18 10 E 1013,1 10
23.09.2018 06:00:00 12,7 9,2 11 6 18 10 E 1013,2 10
23.09.2018 05:00:00 13,1 6,5 11 6 18 10 N 1013,6 10
23.09.2018 04:00:00 13,1 8,2 5 3 11 6 ENE 1014,2 10
23.09.2018 03:00:00 12,8 7,7 8 4 11 6 NNE 1014,7 10
23.09.2018 02:00:00 12,8 7,7 9 5 18 10 S 1015,1 10
23.09.2018 01:00:00 12,9 8,1 16 9 18 10 S 1015,2 10
23.09.2018 00:00:00 12,8 7,8 9 5 18 10 S 1015,7 10
22.09.2018 23:00:00 13,2 6,7 18 10 22 12 WNW 1016,1 10
22.09.2018 22:00:00 13,2 7,8 15 8 25 14 SW 1016,1 10
22.09.2018 21:00:00 14,0 6,7 24 13 25 14 WNW 1016,4 10
22.09.2018 20:00:00 14,1 6,3 28 15 32 18 W 1016,1 10
22.09.2018 19:00:00 14,0 6,7 29 16 36 19 WNW 1015,9 10
22.09.2018 18:00:00 14,3 6,8 37 20 40 21 W 1016,4 10
22.09.2018 17:00:00 14,1 6,6 37 20 43 23 W 1016,7 10
22.09.2018 16:00:00 14,2 6,3 39 21 47 25 SW 1016,9 10
22.09.2018 15:00:00 14,1 7,0 41 22 43 23 SW 1016,9 10
22.09.2018 14:00:00 14,2 7,8 42 23 43 23 SW 1016,9 10
22.09.2018 13:00:00 14,4 7,7 41 22 43 23 SW 1016,9 10
22.09.2018 12:00:00 14,3 7,2 41 22 43 23 SW 1017,0 10
22.09.2018 11:00:00 14,3 6,9 42 23 43 23 SW 1016,7 10
22.09.2018 10:00:00 14,2 5,8 37 20 43 23 W 1016,5 10
22.09.2018 09:00:00 14,5 7,4 46 25 50 27 SW 1016,0 10
22.09.2018 08:00:00 14,3 8,1 46 25 47 25 SW 1015,9 10
22.09.2018 07:00:00 14,3 8,2 50 27 50 27 SW 1015,7 10
22.09.2018 06:00:00 14,2 8,6 48 26 47 25 SW 1015,2 10
22.09.2018 05:00:00 14,3 8,5 48 26 54 29 SW 1014,9 10
22.09.2018 04:00:00 14,5 6,6 55 30 58 31 W 1014,7 10
22.09.2018 03:00:00 14,5 7,5 59 32 61 33 W 1013,8 10
22.09.2018 02:00:00 14,6 8,1 59 32 58 31 W 1013,2 10
22.09.2018 01:00:00 14,6 7,8 65 35 65 35 WNW 1012,1 10
22.09.2018 00:00:00 13,8 9,4 59 32 72 39 WNW 1010,8 3,2
21.09.2018 23:00:00 14,2 7,2 74 40 79 43 W 1009,7 10
21.09.2018 22:00:00 13,2 6,3 83 45 90 49 W 1007,8 10
21.09.2018 21:00:00 14,7 8,7 80 43 83 45 SW 1007,0 10
21.09.2018 20:00:00 15,2 8,9 72 39 72 39 SW 1006,2 10
21.09.2018 19:00:00 13,0 7,2 68 37 86 47 SW 1006,4 10
21.09.2018 18:00:00 14,8 7,2 67 36 72 39 SSW 1005,4 10
21.09.2018 17:00:00 13,3 6,4 80 43 83 45 SW 1006,0 3,4
21.09.2018 16:00:00 14,7 6,1 68 37 72 39 SW 1005,6 10
21.09.2018 15:00:00 14,2 6,0 61 33 65 35 SW 1005,2 10
21.09.2018 14:00:00 13,9 6,1 63 34 61 33 SSW 1004,6 10
21.09.2018 13:00:00 13,2 6,6 63 34 65 35 SW 1003,7 10
21.09.2018 12:00:00 13,7 7,1 63 34 68 37 SW 1002,2 10
21.09.2018 11:00:00 13,6 8,0 67 36 68 37 SW 1001,4 10
21.09.2018 10:00:00 14,1 8,4 67 36 79 43 SW 999,9 10
21.09.2018 09:00:00 14,4 9,2 61 33 79 43 SW 998,2 17
21.09.2018 08:00:00 16,4 9,9 65 35 90 49 SW 995,9 18
21.09.2018 07:00:00 18,0 15,3 76 41 94 51 SSE 993,9 6
21.09.2018 06:00:00 19,3 14,9 65 35 83 45 SSW 994,9 14
21.09.2018 05:00:00 19,4 14,7 61 33 76 41 SSE 996,8 15
21.09.2018 04:00:00 19,4 15,0 61 33 72 39 SSW 998,0 17
21.09.2018 03:00:00 19,5 15,5 54 29 61 33 SSE 999,9 19
21.09.2018 02:00:00 19,4 15,6 50 27 58 31 S 1001,6 19
21.09.2018 01:00:00 19,4 15,8 47 25 54 29 S 1003,1 19
21.09.2018 00:00:00 19,0 16,1 43 23 50 27 S 1004,5 17
20.09.2018 23:00:00 18,8 16,2 40 21 50 27 S 1005,3 14
20.09.2018 22:00:00 18,9 16,0 43 23 54 29 SSW 1006,4 14
20.09.2018 21:00:00 19,1 15,5 47 25 61 33 S 1007,2 14
20.09.2018 20:00:00 19,3 14,9 50 27 68 37 S 1008,1 16
20.09.2018 19:00:00 18,9 15,0 50 27 65 35 S 1009,0 14
20.09.2018 18:00:00 18,6 15,5 47 25 58 31 S 1010,1 13
20.09.2018 17:00:00 18,6 15,3 50 27 61 33 S 1010,6 14
20.09.2018 16:00:00 18,4 15,7 47 25 58 31 S 1011,3 11
20.09.2018 15:00:00 18,5 15,8 43 23 58 31 S 1011,6 11
20.09.2018 14:00:00 18,5 15,6 47 25 58 31 S 1012,1 12
20.09.2018 13:00:00 18,5 15,3 43 23 54 29 S 1012,1 13
20.09.2018 12:00:00 18,4 15,7 43 23 58 31 S 1012,4 12
20.09.2018 11:00:00 18,4 15,9 47 25 58 31 S 1012,4 12
20.09.2018 10:00:00 18,6 16,2 47 25 54 29 S 1012,6 11
20.09.2018 09:00:00 - - - - - - - - -
20.09.2018 08:00:00 - - - - - - - - -
20.09.2018 07:00:00 - - - - - - - - -
20.09.2018 06:00:00 - - - - - - - - -
20.09.2018 05:00:00 - - - - - - - - -
20.09.2018 04:00:00 - - - - - - - - -
20.09.2018 03:00:00 - - - - - - - - -
20.09.2018 02:00:00 - - - - - - - - -
20.09.2018 01:00:00 - - - - - - - - -
20.09.2018 00:00:00 - - - - - - - - -
19.09.2018 23:00:00 - - - - - - - - -
19.09.2018 22:00:00 - - - - - - - - -
19.09.2018 21:00:00 - - - - - - - - -
19.09.2018 20:00:00 - - - - - - - - -
19.09.2018 19:00:00 - - - - - - - - -
19.09.2018 18:00:00 - - - - - - - - -
19.09.2018 17:00:00 - - - - - - - - -
19.09.2018 16:00:00 - - - - - - - - -
19.09.2018 15:00:00 - - - - - - - - -
19.09.2018 14:00:00 - - - - - - - - -
19.09.2018 13:00:00 - - - - - - - - -

tt = Température de l'air
td = dewpoint
ff = Vitesse du vent
fx = gusts
dd = Direction du vent
ppp = reduced air pressure
vv = visibility

stations d'obs. à proximité